Location: Street
(51.1247°N, 2.7429°W)
Time: 14:31:44
(UTC+00:00)

DIWATA 2B (PO-101) - Visible Passes

Search period start: 21 March 2023 00:00
Search period end: 31 March 2023 01:00
Orbit: 581 x 596 km, 98.0° (Epoch: 21 March)

Date Brightness Start Highest point End Pass type
(mag) Time Alt. Az. Time Alt. Az. Time Alt. Az.
21 Mar ? 02:01:35 15° N 02:01:35 15° N 02:02:25 10° N visible
22 Mar ? 02:09:01 17° N 02:09:01 17° N 02:09:59 10° N visible
23 Mar ? 02:16:27 18° N 02:16:27 18° N 02:17:32 10° N visible
24 Mar ? 00:47:23 11° NE 00:47:23 11° NE 00:47:40 10° NNE visible
24 Mar ? 02:23:53 19° N 02:23:53 19° N 02:25:04 10° NNW visible
25 Mar ? 00:54:48 12° NE 00:54:48 12° NE 00:55:36 10° NNE visible
25 Mar ? 02:31:18 19° NNW 02:31:18 19° NNW 02:32:34 10° NNW visible
26 Mar ? 02:02:13 14° NE 02:02:13 14° NE 02:03:24 10° NNE visible
26 Mar ? 03:38:43 20° NNW 03:38:43 20° NNW 03:40:04 10° NNW visible
27 Mar ? 02:09:38 16° NE 02:09:38 16° NE 02:11:08 10° NNE visible
27 Mar ? 03:46:07 21° NNW 03:46:07 21° NNW 03:47:32 10° NNW visible
28 Mar ? 02:17:02 18° NE 02:17:02 18° NE 02:18:49 10° NNE visible
28 Mar ? 03:53:32 21° NNW 03:53:32 21° NNW 03:54:58 10° NNW visible
29 Mar ? 02:24:26 20° NE 02:24:26 20° NE 02:26:27 10° N visible
29 Mar ? 04:00:55 20° NW 04:00:55 20° NW 04:02:24 10° NNW visible
30 Mar ? 02:31:50 22° NE 02:31:50 22° NE 02:34:04 10° N visible
30 Mar ? 04:08:19 20° NW 04:08:19 20° NW 04:09:49 10° NNW visible
